Tracking 20942 objects as of 11-Jul-2020
HD Live streaming from Space Station
objects crossing your sky now

CZ-3B DEB

Track CZ-3B DEB now!


NORAD ID: 40814
Int'l Code: 2010-042X
Perigee: 884.6 km
Apogee: 41,377.0 km
Inclination: 27.5 °
Period: 756.5 minutes
Semi major axis: 27501 km
RCS: Unknown
Launch date: September 4, 2010
Source: People's Republic of China (PRC)
Launch site: Xichang Space Center, China (XSC)

Note: This is SATELLITE DEBRIS
aabbcc
Your satellite tracking list
Your tracking list is empty




NASA's NSSDC Master Catalog

Two Line Element Set (TLE):
1 40814U 10042X   20190.76521435 -.00000453  00000-0 -41235-2 0  9990
2 40814  27.4586   2.4744 7361759 301.9211   6.8276  1.90353562 39439
Source of the keplerian elements: AFSPC